STARLINK-1552, 46076

Orbit data source: Space-Track

STARLINK-1552, 46076 is a payload satellite owned by SpaceX/Seattle (US) in LEO that was launched on Fri, 07 Aug 2020 UTC via an FALCON 9 launch vehicle from the Air Force Eastern Test Range (AFETR). Payload-class satellites include a variety of spacecraft equipped with specific instruments for various scientific and technological missions. These include communications satellites like Starlink; space stations such as the ISS; scientific satellites like the Hubble; Earth observation satellites from companies like Planet Labs, Umbra, and HawkEye 360; GPS; miniature CubeSats for education and research; and military/defense satellites.

Loading next visibility...
Identifier
46076, 2020-055BB
Orbit
LEO
Country
Flag of USUS
Related business
Manufacturer
SpaceX/Seattle
Mission
Operational Commercial Communications
Bus & Motor
STARLINK, Unknown motor
Mass
260 kg wet, ~248 kg dry
Launch date (UTC)
2020-08-07 (5 years ago)
Launch vehicle
FALCON 9
Launch site
Air Force Eastern Test Range (AFETR)
Object type
Payload
Rocket body
Debris
Shape & HBR
Box + 1 Pan, 10.1 m
Radar Cross Section
13.562 m², Large (>1 m²)

Expand to show TLE details & history
Last TLE update: 14 hours ago

TLE from 14 hours ago
0 STARLINK-1552
1 46076U 20055BB  25340.76122054 -.00000391  00000-0 -73698-5 0  9999
2 46076  53.0526 153.7886 0001373  92.0066 268.1080 15.06391898295282
Epoch: 2025-12-06T18:16Z
TLE epoch observation values (Epoch: 2025-12-06T18:16:09.454Z)
Latitude
-0.00005°
Longitude
163.96485°
Altitude
548.147 km
Speed
7.589 km/s
True Right ascension
10h 15m 09s
True Declination
0° 00' 00"
Sunlit
Object was in daylight at epoch
Visualization orbit readout
Latitude
Unknown
Longitude
Unknown
Altitude
Unknown
Speed
Unknown
Apparent Right ascension
Unknown
Apparent Declination
Unknown
Sunlit
N/A
Visualization observer readout
Local Sidereal Time
06:41:56
Azimuth
Unknown
Elevation
Unknown
Doppler factor
Unknown
Orbital elements
Apogee altitude
548.458 km
Perigee altitude
546.557 km
Semi-major axis
6,925.644 km
Eccentricity
0.00014
Inclination
53.0526°
RAAN
153.7886°
Arg. of periapsis
92.0066°
True anomaly
268.09228°
Mean anomaly
268.108°
Eccentric anomaly
268.10014°
Mean motion
3.76576 °/min
Orbital period
95.6 mins
BSTAR
-0.0000073698
Loading maneuver chart data...
Computing Atmospheric mass density...

Documentation

Showing up to 5 results
|